Location: K�ln
(50.9455°N, 6.9544°E)
Time: 16:31:39
(UTC+01:00)

ISS - Pass Details

Date: 10 February 2018
Orbit: 402 x 407 km, 51.6° (Epoch: 25 February)

Event Time Altitude Azimuth Distance (km) Brightness Sun altitude
Rises 18:38:55 0° 285° (WNW) 2,322 1.3 -9.8°
Reaches altitude 10° 18:41:04 10° 277° (W) 1,460 0.3 -10.1°
Maximum altitude 18:44:09 38° 208° (SSW) 630 -2.5 -10.6°
Drops below altitude 10° 18:47:12 10° 138° (SE) 1,455 -1.3 -11.1°
Enters shadow 18:47:56 - 134° (SE) 1,741 -1.0 -11.2°
